[[{"header":{"parameterUnit":"m.s-1","parameterCategory":1,"la1":30.2991,"la2":30.254,"lo1":-89.0895,"lo2":-89.0444,"dy":0.0017,"dx":0.0017,"nx":28,"ny":28,"refTime":"2024-06-03T21:00:00:Z","depth":0,"parameterNumber":2,"parameterNumberName":"U-component_of_WINDS"},"data":[0,0,0,0,0,0,0,0,0,0,0,0,0,0,0,0,0,0,0,0,0,0,0,0,0,0,0,0,0,0,0,0,0,0,0,0,0,0,0,0,0,0,0,0,0,0,0,0,0,0,0,0,0,0,0,0,0,0,-1.8012,-1.8012,0,-1.801,-1.801,-1.801,-1.7974,-1.7973,-1.7972,-1.7971,-1.797,-1.797,-1.7971,0,0,0,0,0,0,0,0,0,0,0,0,0,-1.7986,-1.7987,-1.8012,-1.8012,-1.8012,-1.801,-1.801,-1.801,-1.7974,-1.7973,-1.7972,-1.7971,-1.7969,-1.797,-1.7971,0,0,0,0,0,0,0,0,0,0,0,0,0,-1.7992,-1.7987,-1.8012,-1.7994,-1.7992,-1.801,-1.801,-1.801,-1.7974,-1.7973,-1.7972,-1.797,-1.7969,-1.797,-1.7971,-1.8006,0,0,-1.7975,-1.7976,0,0,0,0,0,0,0,0,-1.7992,-1.7993,-1.7997,-1.7995,-1.7993,-1.7991,-1.8,-1.8009,-1.7975,-1.7981,-1.7971,-1.797,-1.7978,-1.7978,-1.7981,-1.8006,-1.8006,-1.7975,-1.7976,-1.7976,-1.7977,0,0,0,0,0,0,0,-1.7992,-1.7993,-1.8011,-1.7997,-1.7995,-1.7986,-1.7986,-1.8002,-1.7987,-1.7981,-1.7978,-1.7978,-1.7977,-1.798,-1.7981,-1.8006,-1.7975,-1.7976,-1.7977,-1.7977,-1.806,-1.8061,0,0,0,0,0,0,-1.7994,-1.7993,-1.8011,-1.8011,-1.7989,-1.7988,-1.7987,-1.7993,-1.7987,-1.7985,-1.7979,-1.7977,-1.7978,-1.7979,-1.798,-1.802,-1.7976,-1.7978,-1.7978,-1.8059,-1.806,-1.8062,0,0,0,0,0,0,-1.7993,-1.7996,-1.8011,-1.8001,-1.8003,-1.799,-1.7997,-1.7994,-1.7997,-1.7986,-1.7983,-1.7985,-1.7977,-1.7979,-1.8,-1.8019,-1.7978,-1.7979,-1.8057,-1.8059,-1.8061,-1.81,0,0,0,0,0,0,-1.7993,-1.7996,-1.8008,-1.8002,-1.8003,-1.8031,-1.7998,-1.7995,-1.7999,-1.7995,-1.7991,-1.7989,-1.7976,-1.7998,-1.8001,-1.802,-1.798,-1.8055,-1.8058,-1.806,-1.8097,-1.8103,-1.8108,0,0,0,0,0,-1.7992,-1.8019,-1.8009,-1.8012,-1.8019,-1.8032,-1.8033,-1.8018,-1.8001,-1.8013,-1.8007,-1.7989,-1.8018,-1.8001,-1.8004,-1.8023,-1.8054,-1.8057,-1.806,-1.8094,-1.8102,-1.8108,0,0,0,0,0,0,-1.8028,-1.8018,-1.8007,-1.8033,-1.8034,-1.8026,-1.8041,-1.8027,-1.8032,-1.8029,-1.801,-1.801,-1.8034,-1.8031,-1.8013,-1.8057,-1.8032,-1.8037,-1.8057,-1.8064,-1.807,-1.8069,-1.7981,0,0,0,0,0,-1.8039,-1.805,-1.8041,-1.8066,-1.8067,-1.8054,-1.8059,-1.8048,-1.8048,-1.8048,-1.8043,-1.8044,-1.8053,-1.8059,-1.8067,-1.8097,-1.8095,-1.8112,-1.8118,-1.8123,-1.8126,-1.8141,-1.8148,-1.8073,-1.8073,-1.8073,0,0,-1.8062,-1.8058,-1.8066,-1.8073,-1.8072,-1.8084,-1.8054,-1.8068,-1.8077,-1.805,-1.8069,-1.8066,-1.8066,-1.8092,-1.8103,-1.809,-1.8147,-1.8127,-1.8131,-1.8131,-1.8145,-1.8152,-1.8159,-1.8075,-1.8075,-1.8074,0,0,-1.8109,-1.8108,-1.8127,-1.8128,-1.8127,-1.8119,-1.8124,-1.8119,-1.8115,-1.8134,-1.8114,-1.8125,-1.8141,-1.8142,-1.8144,-1.8194,-1.8177,-1.8197,-1.8227,-1.8242,-1.8248,-1.8253,-1.8269,-1.8275,-1.8201,-1.8201,-1.8201,0,-1.8137,-1.8154,-1.8139,-1.8155,-1.8158,-1.8135,-1.8155,-1.8156,-1.8158,-1.816,-1.8147,-1.8167,-1.8165,-1.819,-1.8203,-1.8206,-1.821,-1.8196,-1.8248,-1.8253,-1.8258,-1.8273,-1.8279,-1.8203,-1.8203,-1.8203,-1.8202,0,-1.8188,-1.8201,-1.8217,-1.8219,-1.8225,-1.8242,-1.823,-1.8238,-1.8227,-1.822,-1.8241,-1.8238,-1.8245,-1.8251,-1.824,-1.8275,-1.8267,-1.8251,-1.8226,-1.8267,-1.8281,-1.8287,-1.8206,-1.8205,-1.8205,-1.8204,0,0,-1.8255,-1.8251,-1.8256,-1.8257,-1.8256,-1.8265,-1.8282,-1.8288,-1.8295,-1.8298,-1.8311,-1.8326,-1.8312,-1.8315,-1.8304,-1.8318,-1.8356,-1.83,-1.83,-1.8309,-1.8392,-1.8402,-1.8409,-1.8346,-1.8347,-1.8348,-1.8392,0,-1.8299,-1.8327,-1.8315,-1.8344,-1.8354,-1.8334,-1.8349,-1.835,-1.8345,-1.8354,-1.8349,-1.8359,-1.834,-1.8341,-1.8354,-1.8348,-1.8372,-1.8346,-1.8357,-1.8358,-1.8355,-1.8417,-1.8427,-1.8468,-1.8397,-1.8398,-1.8399,0,-1.8353,-1.8358,-1.8388,-1.8385,-1.8389,-1.8402,-1.8407,-1.8416,-1.8417,-1.8413,-1.8417,-1.8404,-1.8421,-1.8398,-1.842,-1.8403,-1.8407,-1.8406,-1.8407,-1.8405,-1.8379,-1.8414,-1.8481,-1.8486,-1.8408,-1.8407,-1.8406,0,-1.8397,-1.8411,-1.8431,-1.8432,-1.843,-1.8439,-1.8439,-1.8438,-1.8443,-1.8449,-1.8451,-1.8459,-1.8462,-1.8469,-1.8458,-1.8443,-1.8482,-1.8458,-1.8478,-1.8478,-1.8484,-1.8483,-1.855,-1.8492,-1.8492,-1.8492,-1.8491,0,-1.8445,-1.8464,-1.845,-1.8462,-1.8482,-1.8469,-1.849,-1.8487,-1.8488,-1.8498,-1.8483,-1.8493,-1.848,-1.849,-1.8482,-1.8501,-1.8504,-1.85,-1.8497,-1.85,-1.85,-1.85,-1.8496,-1.8493,-1.8493,-1.8493,-1.8492,0,-1.8496,-1.8488,-1.8507,-1.8503,-1.8503,-1.8518,-1.8515,-1.8526,-1.8521,-1.8535,-1.8538,-1.853,-1.854,-1.8531,-1.8542,-1.8537,-1.8561,-1.8556,-1.8561,-1.8558,-1.8577,-1.8575,-1.8644,-1.8652,-1.8591,-1.8592,-1.8592,0,-1.8526,-1.854,-1.8538,-1.8544,-1.8544,-1.8554,-1.8559,-1.8548,-1.8554,-1.8557,-1.8567,-1.8577,-1.8583,-1.8602,-1.8597,-1.8605,-1.8598,-1.8622,-1.8599,-1.8601,-1.8596,-1.8594,-1.8595,-1.8625,-1.8626,-1.8627,-1.8627,0,-1.858,-1.8575,-1.8583,-1.859,-1.8596,-1.8601,-1.8604,-1.8611,-1.8599,-1.8607,-1.8617,-1.8623,-1.8634,-1.8643,-1.865,-1.8649,-1.8636,-1.8635,-1.864,-1.8641,-1.8642,-1.864,-1.8571,-1.8633,-1.8632,-1.8632,-1.8632,-1.8631,-1.8619,-1.863,-1.8631,-1.864,-1.8642,-1.8646,-1.8655,-1.8652,-1.8661,-1.8668,-1.8662,-1.8674,-1.8676,-1.8683,-1.8685,-1.8695,-1.8685,-1.8692,-1.8693,-1.8694,-1.8696,-1.8643,-1.8696,-1.8696,-1.8696,-1.8696,-1.8696,0,-1.8671,-1.867,-1.8679,-1.8684,-1.8692,-1.868,-1.8684,-1.8691,-1.8702,-1.8705,-1.8712,-1.8724,-1.8733,-1.873,-1.8738,-1.8747,-1.8741,-1.8749,-1.8747,-1.8747,-1.8706,-1.87,-1.8754,-1.8754,-1.8754,-1.8754,-1.8754,-1.8754,-1.8698,-1.8715,-1.8712,-1.873,-1.873,-1.8742,-1.8745,-1.8748,-1.875,-1.8765,-1.8772,-1.877,-1.8771,-1.8779,-1.8787,-1.8786,-1.8789,-1.8799,-1.8795,-1.8756,-1.875,-1.8745,-1.8739,-1.88,-1.88,-1.8835,-1.8836,-1.8836]},{"header":{"parameterUnit":"m.s-1","parameterCategory":1,"la1":30.2991,"la2":30.254,"lo1":-89.0895,"lo2":-89.0444,"dy":0.0017,"dx":0.0017,"nx":28,"ny":28,"refTime":"2024-06-03T21:00:00:Z","depth":0,"parameterNumber":3,"parameterNumberName":"V-component_of_WINDS"},"data":[0,0,0,0,0,0,0,0,0,0,0,0,0,0,0,0,0,0,0,0,0,0,0,0,0,0,0,0,0,0,0,0,0,0,0,0,0,0,0,0,0,0,0,0,0,0,0,0,0,0,0,0,0,0,0,0,0,0,4.6491,4.6491,0,4.6492,4.6492,4.6492,4.6519,4.6519,4.652,4.6521,4.6517,4.6516,4.6515,0,0,0,0,0,0,0,0,0,0,0,0,0,4.6509,4.6508,4.6491,4.6491,4.6491,4.6492,4.6492,4.6492,4.6518,4.6519,4.652,4.6521,4.6517,4.6516,4.6515,0,0,0,0,0,0,0,0,0,0,0,0,0,4.6504,4.6508,4.6491,4.6504,4.6506,4.6492,4.6492,4.6492,4.6518,4.6519,4.652,4.6521,4.6517,4.6516,4.6515,4.6486,0,0,4.6511,4.6511,0,0,0,0,0,0,0,0,4.6505,4.6504,4.6502,4.6503,4.6505,4.6506,4.6497,4.649,4.6518,4.6513,4.6521,4.6522,4.6512,4.6511,4.6509,4.6486,4.6486,4.6511,4.6511,4.651,4.651,0,0,0,0,0,0,0,4.6505,4.6504,4.6491,4.6502,4.6504,4.6509,4.651,4.6495,4.6506,4.6514,4.6516,4.6516,4.6513,4.651,4.6509,4.6486,4.6511,4.651,4.651,4.6509,4.6441,4.644,0,0,0,0,0,0,4.6504,4.6504,4.6491,4.6491,4.6508,4.6508,4.6509,4.6505,4.6507,4.6508,4.6515,4.6517,4.6511,4.651,4.6509,4.6477,4.651,4.6509,4.6508,4.6442,4.6441,4.644,0,0,0,0,0,0,4.6504,4.6503,4.6491,4.6498,4.6497,4.6507,4.6502,4.6504,4.6501,4.6508,4.6509,4.651,4.6512,4.6511,4.6492,4.6477,4.6508,4.6507,4.6443,4.6442,4.644,4.6411,0,0,0,0,0,0,4.6505,4.6502,4.6492,4.6498,4.6497,4.6475,4.6501,4.6503,4.65,4.6503,4.6504,4.6505,4.6513,4.6494,4.6491,4.6476,4.6507,4.6445,4.6443,4.6441,4.6414,4.6409,4.6405,0,0,0,0,0,4.6505,4.6483,4.6492,4.649,4.6484,4.6474,4.6474,4.6485,4.6498,4.6488,4.6492,4.6505,4.6479,4.6492,4.6489,4.6473,4.6446,4.6443,4.6441,4.6416,4.641,4.6405,0,0,0,0,0,0,4.6473,4.6484,4.6494,4.6473,4.6473,4.6479,4.6466,4.6478,4.6473,4.6475,4.6488,4.6488,4.6468,4.6469,4.6483,4.6446,4.6465,4.6462,4.6447,4.6441,4.6437,4.6437,4.6506,0,0,0,0,0,4.6464,4.6457,4.6466,4.6446,4.6446,4.6456,4.6452,4.6461,4.6461,4.646,4.6463,4.6461,4.6453,4.6447,4.6439,4.6414,4.6415,4.6402,4.6397,4.6394,4.6391,4.6378,4.6373,4.6431,4.6431,4.6431,0,0,4.6445,4.645,4.6444,4.644,4.6441,4.6432,4.6456,4.6445,4.6438,4.6458,4.6442,4.6444,4.6443,4.6421,4.6412,4.6421,4.6375,4.639,4.6387,4.6386,4.6375,4.637,4.6365,4.643,4.643,4.643,0,0,4.6405,4.6408,4.6393,4.6394,4.6396,4.6403,4.6399,4.6404,4.6407,4.6391,4.6407,4.6398,4.6383,4.6382,4.638,4.6341,4.6353,4.6338,4.6315,4.6302,4.6298,4.6294,4.6281,4.6276,4.6335,4.6335,4.6335,0,4.638,4.6368,4.6383,4.6372,4.637,4.639,4.6374,4.6374,4.6373,4.637,4.6381,4.6364,4.6365,4.6344,4.6335,4.6332,4.6328,4.6338,4.6298,4.6294,4.629,4.6278,4.6273,4.6333,4.6334,4.6334,4.6334,0,4.6338,4.633,4.6317,4.6318,4.6314,4.6301,4.6312,4.6307,4.6316,4.6322,4.6306,4.6308,4.6302,4.6297,4.6305,4.6278,4.6284,4.6296,4.6315,4.6283,4.6271,4.6267,4.6331,4.6332,4.6332,4.6332,0,0,4.6277,4.6288,4.6283,4.6284,4.6289,4.6282,4.6269,4.6265,4.6261,4.6259,4.6249,4.6237,4.6249,4.6246,4.6254,4.6243,4.6214,4.6257,4.6257,4.6249,4.6184,4.6175,4.617,4.6222,4.6221,4.622,4.6185,0,4.624,4.6221,4.6234,4.6212,4.6205,4.6224,4.6213,4.6214,4.6219,4.6213,4.6218,4.621,4.6226,4.6225,4.6215,4.6219,4.6201,4.6222,4.6211,4.6211,4.6212,4.6164,4.6154,4.6121,4.618,4.6179,4.6179,0,4.6193,4.6192,4.617,4.6178,4.6175,4.6165,4.6163,4.6157,4.6158,4.6163,4.6161,4.6172,4.616,4.6179,4.6161,4.6176,4.6172,4.6174,4.6173,4.6172,4.6193,4.6163,4.611,4.6105,4.6172,4.6172,4.6173,0,4.6152,4.6145,4.6132,4.6132,4.614,4.6132,4.6135,4.6138,4.6135,4.6133,4.6131,4.6127,4.6124,4.612,4.613,4.6143,4.6112,4.6131,4.6115,4.6115,4.6107,4.6108,4.6054,4.6104,4.6104,4.6104,4.6104,0,4.6109,4.6095,4.6114,4.6105,4.609,4.6105,4.6089,4.6094,4.6096,4.6089,4.6104,4.6096,4.611,4.6103,4.611,4.6095,4.6094,4.6097,4.6099,4.6096,4.6095,4.6094,4.6096,4.6103,4.6103,4.6104,4.6104,0,4.6061,4.6073,4.606,4.6069,4.6071,4.6059,4.6067,4.6059,4.6066,4.6056,4.6054,4.6065,4.6058,4.6067,4.606,4.6065,4.6046,4.6051,4.6046,4.6047,4.6031,4.6033,4.5975,4.5968,4.6022,4.6021,4.6021,0,4.6033,4.6023,4.6032,4.6029,4.6031,4.6026,4.6024,4.6038,4.6035,4.6037,4.6029,4.6023,4.602,4.6008,4.6014,4.6009,4.6015,4.5995,4.6014,4.6012,4.6015,4.6016,4.6016,4.5991,4.599,4.599,4.5989,0,4.5982,4.5989,4.5986,4.5986,4.5983,4.5983,4.5984,4.598,4.5995,4.5991,4.5985,4.5982,4.5977,4.5972,4.5969,4.597,4.5982,4.5983,4.598,4.5976,4.5974,4.5976,4.6036,4.5985,4.5985,4.5985,4.5986,4.5986,4.5944,4.5937,4.5942,4.5939,4.5941,4.5942,4.5936,4.5943,4.5939,4.5937,4.5945,4.5937,4.594,4.5938,4.5938,4.5932,4.594,4.5934,4.5933,4.5932,4.593,4.5975,4.5931,4.5931,4.5931,4.5931,4.5932,0,4.5895,4.59,4.5897,4.5899,4.5896,4.5909,4.5911,4.5907,4.5901,4.5903,4.59,4.5894,4.5889,4.5896,4.5892,4.5886,4.5891,4.5884,4.5885,4.5885,4.5922,4.5926,4.588,4.588,4.588,4.588,4.588,4.588,4.5869,4.5858,4.5865,4.5855,4.586,4.5855,4.5855,4.5855,4.5857,4.585,4.5847,4.5852,4.5856,4.5853,4.5849,4.5851,4.5849,4.584,4.5844,4.5878,4.5883,4.5887,4.5892,4.5839,4.5839,4.5808,4.5808,4.5808]}]]